OBJECT D, 62732

Orbit data source: Space-Track

You're viewing an Uncataloged Satellite

Recently launched and/or uncataloged satellites may have evolving metadata. Metadata may include but not limited to: Owner, Maufacturer, Bus, Motor, and Mission.

OBJECT D, 62732 is a satellite owned by Yunyao yuhang (CN) in SSO that was launched on Mon, 20 Jan 2025 UTC via a GUSHENXING 1 launch vehicle from the Jiuquan Satellite Launch Center, China (JSC). Unknown objects in Earth's orbit typically refer to objects detected orbiting the Earth but have not yet been identified or cataloged. These objects could be anything from previously untracked satellites, spent rocket stages, debris from satellite collisions, or even natural meteoroids temporarily captured by Earth's gravity.

Loading next visibility...
OBJECT D details
Identifier
62732, 2025-013D
Orbit
SSO
Last TLE update9 hours ago
Origin
Flag of CNYunyao yuhang (CN / PRC)
ManufacturerYunyao yuhang
MissionOperational spacecraft
Bus & MotorYY-1, Unknown motor
Mass~50 kg wet, ~50 kg dry
Launch date (UTC)
2025-01-20 (1 month ago)
Launch vehicle
GUSHENXING 1
Launch site
Jiuquan Satellite Launch Center, China (JSC)
Object typeUnknown
Shape & HBRUnknown
Radar Cross SectionMedium (>0.1 m² and <1 m²)

Expand to show TLE details & history

TLE from 9 hours ago
0 OBJECT D
1 62732U 25013D   25047.11313557  .00010015  00000-0  62056-3 0  9994
2 62732  97.6111 214.0087 0014566 191.2716 168.8189 15.09875888  3977
Epoch: 2025-02-16T02:42Z
Definitive object data (Epoch: 2025-02-16T02:42:54.913Z)
Latitude-0.00001°
Longitude26.92904°
Altitude549.533 km
Speed7.582 km/s
True Right ascension14h 16m 02s
True Declination0° 00' 00"
Sunlit
Object was in full shadow at TLE epoch
Visualization TLE readout
Latitude-79.16898°
Longitude163.30927°
Altitude561.439 km
Speed7.581 km/s
Apparent Right ascension01h 57m 17s
Apparent Declination-61° 42' 53"
Sunlit
Object is in daylight
Visualization observer readout
Local Sidereal Time14:35:56
Azimuth168.049° S
Elevation-67.42°
Doppler factor1
Orbital elements
Apogee altitude543.635 km
Perigee altitude523.5 km
Semi-major axis6,911.704 km
Eccentricity0.0014566
Inclination97.6111°
RAAN214.0087°
Arg. of periapsis191.2716°
True anomaly168.85121°
Mean anomaly168.8189°
Eccentric anomaly168.83506°
Mean motion3.77716 °/min
BSTAR0.00062056
Orbital period95.31 mins
Loading maneuver chart data...
Loading historical data...
Loading historical data...
Loading historical data...
Loading historical data...
Loading historical data...
Loading historical data...
Loading historical data...
Other satellites on launch #13 in the year 2025 (2025-01-20 UTC)

OBJECT D Visibility forecast

Observer location: undefined°, undefined

Span
Click to sort rows by Start time (UTC) header in descending order
Start Az.
Max El. time (UTC)
Max El. Az.
Max El.
End time (UTC)
End Az.
6 mins2025-02-16 23:57:30.368Z9.351° NNE2025-02-17 00:00:30.368Z285.738° WNW44.628°2025-02-17 00:03:30.368Z197.333° SSW
5 mins2025-02-17 10:40:30.368Z134.179° SE2025-02-17 10:42:30.368Z74.889° E35.374°2025-02-17 10:45:30.368Z4.642° NNE
|